Printer-friendly version

IAU Minor Planet Center

Minor Planet Center

MPEC 2006-U91 : COMET P/2006 T1 (LEVY)

The following Minor Planet Electronic Circular may be linked-to from your own Web pages, but must not otherwise be redistributed electronically.


Read MPEC 2006-U90 Read MPEC 2006-U92


M.P.E.C. 2006-U91                                Issued 2006 Oct. 30, 19:06 UT

     The Minor Planet Electronic Circulars contain information on unusual
         minor planets and routine data on comets.  They are published
   on behalf of Commission 20 of the International Astronomical Union by the
          Minor Planet Center, Smithsonian Astrophysical Observatory,
                          Cambridge, MA 02138, U.S.A.

             Prepared using the Tamkin Foundation Computer Network

                              MPC@CFA.HARVARD.EDU
          URL http://cfa-www.harvard.edu/iau/mpc.html  ISSN 1523-6714

                            COMET P/2006 T1 (LEVY)

Observations:
    PK06T010  C2006 10 03.51851 09 41 31.71 +15 13 06.6          11.5 T EU091G92
    PK06T010  C2006 10 03.51964 09 41 31.93 +15 13 03.2          11.5 T EU091G92
    PK06T010  C2006 10 03.52149 09 41 32.36 +15 13 00.0          11.8 T EU091G92
    PK06T010  C2006 10 03.52249 09 41 32.62 +15 12 57.4          11.7 T EU091G92
    PK06T010  C2006 10 17.46106 10 33 14.87 +06 06 22.0          11.2 T EU091G92
    PK06T010  C2006 10 17.46743 10 33 16.27 +06 06 09.7          11.1 T EU091G92
    PK06T010  C2006 10 17.47381 10 33 17.54 +06 05 54.1          11.0 T EU091G92
    PK06T010  C2006 10 17.48019 10 33 18.87 +06 05 38.6          11.1 T EU091G92
    PK06T010  C2006 10 19.46346 10 40 11.07 +04 49 01.2          11.2 T EU091G92
    PK06T010  C2006 10 19.48959 10 40 16.23 +04 47 58.9          11.0 T EU091G92
    PK06T010  C2006 10 20.19550 10 42 41.43 +04 20 49.6          13.3 N EU091J63
    PK06T010  C2006 10 20.19737 10 42 41.83 +04 20 40.7          13.3 N EU091J63
    PK06T010  C2006 10 20.21155 10 42 44.78 +04 20 11.1          13.4 N EU091J63
    PK06T010  C2006 10 20.46315 10 43 36.06 +04 10 34.2          11.9 T EU091G92
    PK06T010  C2006 10 20.47191 10 43 37.91 +04 10 14.8          11.9 T EU091G92
    PK06T010  C2006 10 20.48078 10 43 39.70 +04 09 52.9          11.8 T EU091G92
    PK06T010  C2006 10 20.48958 10 43 41.49 +04 09 33.2          11.8 T EU091G92
    PK06T010   2006 10 20.80469 10 44 46.06 +03 57 27.3          10.8 T EU091372
    PK06T010   2006 10 20.81453 10 44 48.04 +03 57 04.8                 EU091372
    PK06T010   2006 10 20.81878 10 44 48.91 +03 56 54.9          10.9 T EU091372
    PK06T010  C2006 10 21.15929 10 45 58.17 +03 43 55.4          14.2 N EU091442
    PK06T010  C2006 10 21.16386 10 45 59.15 +03 43 43.6          14.5 N EU091232
    PK06T010  C2006 10 21.17176 10 46 00.71 +03 43 25.1          14.5 N EU091232
    PK06T010  C2006 10 21.17868 10 46 02.00 +03 43 07.3          14.4 N EU091232
    PK06T010  C2006 10 21.46109 10 46 59.49 +03 32 24.5          13.4 T EU091G92
    PK06T010  C2006 10 21.46745 10 47 00.73 +03 32 10.3          13.0 T EU091G92
    PK06T010  C2006 10 21.47383 10 47 01.85 +03 31 56.9          13.2 T EU091G92
    PK06T010  C2006 10 21.48021 10 47 03.28 +03 31 42.8          13.3 T EU091G92
    PK06T010  C2006 10 21.50952 10 47 09.28 +03 30 32.7          15.8 N EU091448
    PK06T010  C2006 10 21.51130 10 47 09.76 +03 30 28.0          12.7 T EU091G96
    PK06T010  C2006 10 21.51162 10 47 09.81 +03 30 27.3                 EU091G96
    PK06T010  C2006 10 21.51192 10 47 09.87 +03 30 26.4                 EU091G96
    PK06T010  C2006 10 21.51223 10 47 09.95 +03 30 25.9                 EU091G96
    PK06T010  C2006 10 21.51256 10 47 09.95 +03 30 25.4          15.5 N EU091448
    PK06T010  C2006 10 21.51578 10 47 10.60 +03 30 18.3          15.6 N EU091448
    PK06T010  C2006 10 22.45535 10 50 20.43 +02 54 37.1          12.4 T EU091G92
    PK06T010  C2006 10 22.46679 10 50 22.71 +02 54 09.3          12.4 T EU091G92
    PK06T010  C2006 10 22.47811 10 50 24.90 +02 53 42.4          12.3 T EU091G92
    PK06T010  C2006 10 22.48944 10 50 27.11 +02 53 17.6          12.5 T EU091G92
    PK06T010  C2006 10 23.19533 10 52 48.96 +02 26 31.5          14.1 N EU091442
    PK06T010  C2006 10 23.19554 10 52 48.81 +02 26 31.1          14.1 N EU091442
    PK06T010  C2006 10 23.47585 10 53 45.00 +02 15 57.4          15.4 N EU091H06
    PK06T010  C2006 10 23.48083 10 53 46.08 +02 15 46.4          15.2 N EU091H06
    PK06T010   2006 10 23.80625 10 54 50.87 +02 03 29.9          11.3 T EU091372
    PK06T010   2006 10 23.80989 10 54 51.62 +02 03 22.2                 EU091372
    PK06T010  C2006 10 24.40475 10 56 49.89 +01 40 59.9          15.7 N EU091850
    PK06T010  C2006 10 24.42295 10 56 53.44 +01 40 19.2          13.2 T EU091850
    PK06T010  C2006 10 24.44204 10 56 57.28 +01 39 36.3          15.9 N EU091850
    PK06T010  C2006 10 25.16883 10 59 20.68 +01 12 26.9          13.8 N EU091442
    PK06T010  C2006 10 25.16934 10 59 20.79 +01 12 25.9          13.8 N EU091442
    PK06T010  C2006 10 25.16990 10 59 20.96 +01 12 21.0          13.8 N EU091442
    PK06T010  C2006 10 25.17013 10 59 21.05 +01 12 20.5          13.8 N EU091442
    PK06T010  C2006 10 25.48242 11 00 22.66 +01 00 41.8          13.0 T EU091H06
    PK06T010  C2006 10 25.48524 11 00 23.17 +01 00 36.1          12.9 T EU091H06
    PK06T010   2006 10 25.81656 11 01 28.30 +00 48 15.2          11.5 T EU091372
    PK06T010   2006 10 25.82049 11 01 29.10 +00 48 06.6                 EU091372
    PK06T010   2006 10 25.82892 11 01 30.77 +00 47 47.7          11.5 T EU091372
    PK06T010  C2006 10 27.20239 11 05 58.72 -00 03 04.4                 EU091J95
    PK06T010  C2006 10 27.20510 11 05 59.27 -00 03 11.0                 EU091J95
    PK06T010  C2006 10 27.20781 11 05 59.74 -00 03 16.6          16.3 N EU091J95
    PK06T010  C2006 10 27.50311 11 06 57.11 -00 14 07.8          15.9 N EU091H06
    PK06T010  C2006 10 27.50814 11 06 58.04 -00 14 18.1          16.0 N EU091H06
    PK06T010  C2006 10 27.51127 11 06 58.82 -00 14 26.2          16.8 N EU091448
    PK06T010  C2006 10 27.51355 11 06 59.20 -00 14 31.3          16.8 N EU091448
    PK06T010  C2006 10 27.51582 11 06 59.61 -00 14 36.0          16.3 N EU091448
    PK06T010  C2006 10 28.15213 11 09 02.50 -00 37 57.8          16.0 N EU091118
    PK06T010  C2006 10 28.15756 11 09 03.60 -00 38 10.0          15.6 N EU091118
    PK06T010  C2006 10 29.48476 11 13 18.25 -01 26 29.4          16.3 N EU091H06
    PK06T010  C2006 10 29.49248 11 13 19.83 -01 26 47.5          16.2 N EU091H06

Observer details:
118 Modra.  Observers S. Gajdos, J. Vilagi.  0.6-m f/5.5 reflector + CCD.
232 Masquefa Observatory.  Observer E. Reina.  0.25-m f/3.3 Schmidt-Cassegrain
    + CCD.
372 Geisei.  Observer T. Seki.  0.60-m f/3.5 reflector.
442 Gualba Observatory.  Observer A. Sanchez.  0.36-m f/6 Schmidt-Cassegrain
    + CCD.
448 Desert Moon Observatory.  Observer B. L. Stevens.  0.3-m
    Schmidt-Cassegrain + CCD.
850 Cordell-Lorenz Observatory, Sewanee.  Observer D. T. Durig.  0.30-m f/5
    Schmidt-Cassegrain + CCD.
G92 Jarnac Observatory, Vail.  Observer D. Levy.  0.35-m f/2
    Schmidt-Cassegrain + CCD.
G96 Mt. Lemmon Survey.  Observer E. J. Christensen.  Measurers E. C. Beshore,
    E. J. Christensen, A. R. Gibbs, A. D. Grauer, R. E. Hill,
    R. A. Kowalski, S. M. Larson.  1.5-m reflector + CCD.
H06 RAS Observatory, Mayhill.  Observers E. Guido, G. Sostero, M. Suzuki.
    0.25-m f/3.4 reflector + CCD.
J63 San Gabriel.  Observer F. Lopez.  0.13-m f/5.0 Schmidt-Cassegrain + CCD.
J95 Great Shefford.  Observer P. Birtwhistle.  0.40-m f/6.0 Schmidt-Cassegrain
    + CCD.

Orbital elements:
    P/2006 T1 (Levy)
T 2006 Oct. 7.4347 TT                                   MPC
q   0.989730             (2000.0)            P               Q
n   0.1870095      Peri.  179.4584      -0.1617423      -0.9369548
a   3.028495       Node   279.8222      +0.9042155      -0.0149820
e   0.673194       Incl.   18.3231      +0.3952641      -0.3491293
P   5.27
From 260 observations 2006 Oct. 2-29.

Ephemeris:
    P/2006 T1 (Levy)
Date    TT    R. A. (2000) Decl.     Delta      r     Elong.  Phase   m1    m2
2006 10 22    10 48.80   +03 11.9    1.402    1.011    46.1    45.2  11.3
2006 11 01    11 21.23   -02 56.7    1.447    1.048    46.4    43.3  11.5
2006 11 11    11 51.46   -08 37.2    1.494    1.101    47.5    41.5  11.8
2006 11 21    12 19.78   -13 45.7    1.540    1.167    49.3    39.9  12.1
2006 12 01    12 46.31   -18 21.2    1.581    1.241    51.7    38.6  12.4
2006 12 11    13 11.13   -22 25.3    1.615    1.322    54.9    37.5  12.8
2006 12 21    13 34.18   -26 00.8    1.641    1.407    58.7    36.7  13.1
2006 12 31    13 55.32   -29 10.4    1.656    1.495    63.1    35.9  13.3

Brian G. Marsden             (C) Copyright 2006 MPC           M.P.E.C. 2006-U91

Read MPEC 2006-U90 Read MPEC 2006-U92


Our Web policy. Index to the CBAT/MPC/ICQ pages.


Valid HTML 4.01!